Regional Weather Roundup
Issued by NWS Nashville, TN

Home | Current Version | Previous Version | Text Only | Print | Product List | Glossary On
Versions: 1 2 3 4 5 6 7 8 9 10 11 12 13 14 15 16 17 18 19 20 21 22 23 24 25 26 27
000
ASUS44 KOHX 202210
RWROHX
MIDDLE TENNESSEE HOURLY WEATHER ROUNDUP
NATIONAL WEATHER SERVICE NASHVILLE TN
500 PM CDT THU JUL 20 2017

NOTE: "FAIR" INDICATES FEW OR NO CLOUDS BELOW 12,000 FEET WITH
NO SIGNIFICANT WEATHER AND/OR OBSTRUCTIONS TO VISIBILITY.

* THESE REPORTS ARE NOT UNDER NWS QUALITY CONTROL AND MAY NOT
  REPORT WEATHER SUCH AS PRECIPITATION AND FOG.


TNZ005>011-023>034-057-059-062>066-078-080-202300
...NORTHERN MIDDLE TENNESSEE...

CITY           SKY/WX    TMP DP  RH WIND       PRES   REMARKS
CLARKSVILLE    MOSUNNY   90  72  55 SW6       30.05F HX  97
CROSSVILLE     MOSUNNY   85  69  58 N6        30.13F
GALLATIN       SUNNY     93  70  46 VRB5      30.07F HX  99
DICKSON        SUNNY     90  71  53 VRB3      30.08F HX  96
NASHVILLE      PTSUNNY   95  67  39 NE5       30.06F HX  99
PORTLAND       SUNNY     90  73  58 CALM      30.04F HX  98
SMYRNA         CLOUDY    94  72  48 N6        30.06F HX 102
SPARTA         SUNNY     88  75  66 CALM      30.07F HX  97
WEST NASHVILLE SUNNY     93  73  52 NW6       30.04S HX 102
$$
TNZ056-058-060-061-075>077-079-093>097-202300
...SOUTHERN MIDDLE TENNESSEE...

CITY           SKY/WX    TMP DP  RH WIND       PRES   REMARKS
COLUMBIA       SUNNY     91  70  49 CALM      30.04F HX  97
FAYETTEVILLE   MOSUNNY   91  70  49 NW8       30.06F HX  97
MCMINNVILLE    SUNNY     90  73  58 N3        30.08F HX  98
MURFREESBORO   CLOUDY    92  70  48 NE6       30.05F HX  97
PULASKI        SUNNY     93  72  49 N7        30.06S HX 100
TULLAHOMA      SUNNY     90  70  51 N3        30.09F HX  95
WINCHESTER     MOSUNNY   91  72  52 N6        30.07F HX  98
$$


...KEY TO REMARKS...
VSB - VISIBILITY IN MILES
WCI - WIND CHILL INDEX
HX  - HEAT INDEX





USA.gov is the U.S. government's official web portal to all federal, state and local government web resources and services.